ENY4101 KCLE-KDCA

Flight info

Callsign ENY4101
Flight time 0h 49m
Altitude 27000
Route KKIDS1 NUSMM BUCKO FRDMM6
Aircraft E75L/M-SDE3GILORVW/S

Departure

Time 2026-05-05 23:32
Airport Cleveland Hopkins International Airport (KCLE)

Arrival

Time 2026-05-06 00:22
Airport Ronald Reagan Washington National Airport (KDCA)
Time Latitude Longitude Altitude Speed Heading
2026-05-05 22:55 41.40913 -81.84057 781 ft 0 kts 141°
2026-05-05 23:20 41.40926 -81.84071 781 ft 4 kts 141°
2026-05-05 23:21 41.40947 -81.84094 791 ft 4 kts 141°
2026-05-05 23:21 41.40968 -81.84116 790 ft 4 kts 141°
2026-05-05 23:21 41.40989 -81.84138 790 ft 3 kts 141°
2026-05-05 23:21 41.40992 -81.84142 790 ft 0 kts 141°
2026-05-05 23:24 41.40990 -81.84136 792 ft 2 kts 117°
2026-05-05 23:24 41.40997 -81.84115 790 ft 3 kts 24°
2026-05-05 23:25 41.41009 -81.84124 790 ft 3 kts 296°
2026-05-05 23:25 41.41029 -81.84179 790 ft 7 kts 296°
2026-05-05 23:25 41.41045 -81.84224 790 ft 6 kts 296°
2026-05-05 23:26 41.41054 -81.84250 790 ft 5 kts 287°
2026-05-05 23:26 41.41059 -81.84340 790 ft 14 kts 273°
2026-05-05 23:26 41.41086 -81.84449 790 ft 11 kts 321°
2026-05-05 23:26 41.41145 -81.84514 791 ft 10 kts 320°
2026-05-05 23:27 41.41153 -81.84578 791 ft 6 kts 232°
2026-05-05 23:27 41.41128 -81.84617 791 ft 6 kts 230°
2026-05-05 23:27 41.41112 -81.84642 791 ft 5 kts 230°
2026-05-05 23:27 41.41096 -81.84671 791 ft 6 kts 241°
2026-05-05 23:28 41.41106 -81.84724 791 ft 9 kts 323°
2026-05-05 23:28 41.41185 -81.84807 791 ft 15 kts 320°
2026-05-05 23:28 41.41262 -81.84892 790 ft 15 kts 320°
2026-05-05 23:28 41.41331 -81.84966 790 ft 9 kts 333°
2026-05-05 23:29 41.41363 -81.84949 790 ft 9 kts 50°
2026-05-05 23:29 41.41414 -81.84869 790 ft 11 kts 50°
2026-05-05 23:29 41.41461 -81.84794 790 ft 10 kts 50°
2026-05-05 23:29 41.41490 -81.84777 790 ft 0 kts 356°
2026-05-05 23:30 41.41528 -81.84800 789 ft 7 kts 321°
2026-05-05 23:30 41.41563 -81.84844 789 ft 5 kts 289°
2026-05-05 23:31 41.41560 -81.84865 789 ft 0 kts 232°
2026-05-05 23:31 41.41557 -81.84871 790 ft 6 kts 230°
2026-05-05 23:32 41.41372 -81.85163 793 ft 78 kts 229°
2026-05-05 23:32 41.40875 -81.85949 793 ft 142 kts 230°
2026-05-05 23:32 41.40167 -81.87072 1248 ft 163 kts 234°
2026-05-05 23:32 41.39386 -81.88195 1952 ft 174 kts 222°
2026-05-05 23:33 41.38285 -81.88915 2614 ft 183 kts 197°
2026-05-05 23:33 41.36991 -81.89013 3388 ft 188 kts 177°
2026-05-05 23:33 41.35616 -81.88763 3967 ft 208 kts 176°
2026-05-05 23:33 41.34142 -81.88482 4710 ft 220 kts 178°
2026-05-05 23:34 41.32649 -81.88160 5320 ft 238 kts 175°
2026-05-05 23:34 41.31151 -81.87375 6016 ft 258 kts 156°
2026-05-05 23:34 41.30944 -81.87192 6129 ft 261 kts 153°
2026-05-05 23:34 41.30101 -81.86170 6601 ft 275 kts 138°
2026-05-05 23:35 41.29843 -81.85722 6766 ft 280 kts 133°
2026-05-05 23:35 41.28894 -81.83764 7442 ft 287 kts 130°
2026-05-05 23:35 41.27882 -81.81529 8150 ft 293 kts 128°
2026-05-05 23:35 41.26906 -81.79172 8857 ft 299 kts 126°
2026-05-05 23:36 41.25941 -81.76716 9578 ft 303 kts 125°
2026-05-05 23:36 41.24983 -81.74198 10221 ft 308 kts 124°
2026-05-05 23:36 41.24019 -81.71625 10872 ft 312 kts 124°
2026-05-05 23:36 41.23066 -81.69050 11533 ft 318 kts 123°
2026-05-05 23:37 41.22144 -81.66340 12171 ft 329 kts 116°
2026-05-05 23:37 41.21633 -81.63229 12387 ft 355 kts 103°
2026-05-05 23:37 41.21253 -81.59973 12812 ft 367 kts 101°
2026-05-05 23:37 41.20979 -81.56572 13131 ft 381 kts 100°
2026-05-05 23:38 41.20758 -81.53089 13634 ft 390 kts 99°
2026-05-05 23:38 41.20555 -81.49473 14241 ft 395 kts 98°
2026-05-05 23:38 41.20366 -81.45817 14865 ft 399 kts 98°
2026-05-05 23:38 41.19884 -81.42384 15449 ft 393 kts 117°
2026-05-05 23:39 41.18371 -81.39481 16074 ft 377 kts 146°
2026-05-05 23:39 41.16139 -81.37867 16706 ft 363 kts 165°
2026-05-05 23:39 41.13768 -81.36649 17303 ft 368 kts 166°
2026-05-05 23:39 41.11363 -81.35418 17911 ft 373 kts 166°
2026-05-05 23:40 41.08930 -81.34146 18490 ft 378 kts 166°
2026-05-05 23:40 41.06474 -81.32843 19097 ft 382 kts 165°
2026-05-05 23:40 41.04028 -81.31521 19752 ft 386 kts 165°
2026-05-05 23:40 41.01609 -81.30223 20399 ft 390 kts 165°
2026-05-05 23:41 40.99167 -81.28917 20972 ft 396 kts 165°
2026-05-05 23:41 40.96608 -81.27548 21575 ft 400 kts 165°
2026-05-05 23:41 40.94090 -81.26214 22162 ft 403 kts 165°
2026-05-05 23:41 40.91463 -81.24840 22757 ft 407 kts 165°
2026-05-05 23:42 40.88813 -81.23460 23337 ft 411 kts 165°
2026-05-05 23:42 40.86167 -81.22087 23835 ft 415 kts 165°
2026-05-05 23:42 40.83469 -81.20691 24312 ft 419 kts 165°
2026-05-05 23:42 40.80735 -81.19285 24778 ft 423 kts 166°
2026-05-05 23:43 40.77976 -81.17877 25162 ft 428 kts 166°
2026-05-05 23:43 40.75181 -81.16461 25614 ft 432 kts 166°
2026-05-05 23:43 40.72365 -81.15038 26066 ft 435 kts 166°
2026-05-05 23:43 40.69553 -81.13626 26495 ft 438 kts 166°
2026-05-05 23:44 40.66683 -81.12192 26899 ft 442 kts 166°
2026-05-05 23:44 40.63771 -81.10764 26862 ft 449 kts 167°
2026-05-05 23:44 40.60830 -81.09356 26837 ft 451 kts 167°
2026-05-05 23:44 40.57873 -81.07930 26840 ft 453 kts 166°
2026-05-05 23:45 40.54925 -81.06507 26870 ft 456 kts 166°
2026-05-05 23:45 40.51929 -81.05061 26858 ft 457 kts 166°
2026-05-05 23:45 40.49028 -81.03666 26863 ft 458 kts 166°
2026-05-05 23:45 40.46075 -81.02241 26853 ft 458 kts 166°
2026-05-05 23:46 40.43078 -81.00793 26834 ft 457 kts 166°
2026-05-05 23:46 40.40153 -80.99388 26839 ft 458 kts 166°
2026-05-05 23:46 40.37189 -80.97967 26835 ft 457 kts 166°
2026-05-05 23:46 40.34344 -80.96602 26840 ft 457 kts 166°
2026-05-05 23:47 40.31372 -80.95178 26841 ft 457 kts 166°
2026-05-05 23:47 40.28389 -80.93750 26839 ft 457 kts 166°
2026-05-05 23:47 40.25425 -80.92333 26839 ft 457 kts 166°
2026-05-05 23:47 40.22521 -80.90945 26830 ft 457 kts 166°
2026-05-05 23:48 40.19544 -80.89523 26849 ft 455 kts 166°
2026-05-05 23:48 40.16609 -80.88121 26849 ft 455 kts 166°
2026-05-05 23:48 40.13643 -80.86709 26849 ft 455 kts 166°
2026-05-05 23:48 40.10748 -80.85335 26830 ft 455 kts 166°
2026-05-05 23:49 40.07850 -80.83959 26848 ft 458 kts 166°
2026-05-05 23:49 40.04940 -80.82561 26839 ft 458 kts 164°
2026-05-05 23:49 40.02213 -80.80296 26812 ft 460 kts 138°
2026-05-05 23:49 40.00124 -80.77228 26798 ft 457 kts 137°
2026-05-05 23:50 39.97971 -80.74225 26780 ft 451 kts 139°
2026-05-05 23:50 39.95861 -80.71394 26818 ft 450 kts 140°
2026-05-05 23:50 39.93671 -80.68505 26841 ft 450 kts 140°
2026-05-05 23:50 39.91482 -80.65599 26854 ft 450 kts 139°
2026-05-05 23:51 39.89351 -80.62744 26863 ft 449 kts 139°
2026-05-05 23:51 39.87166 -80.59813 26856 ft 450 kts 139°
2026-05-05 23:51 39.85007 -80.56908 26860 ft 450 kts 139°
2026-05-05 23:51 39.82841 -80.53992 26864 ft 450 kts 139°
2026-05-05 23:52 39.80663 -80.51057 26858 ft 450 kts 139°
2026-05-05 23:52 39.78487 -80.48128 26848 ft 450 kts 139°
2026-05-05 23:52 39.76418 -80.45339 26831 ft 450 kts 138°
2026-05-05 23:52 39.74296 -80.42463 26868 ft 450 kts 139°
2026-05-05 23:53 39.72138 -80.39579 26862 ft 450 kts 139°
2026-05-05 23:53 39.69955 -80.36659 26857 ft 450 kts 139°
2026-05-05 23:53 39.67777 -80.33744 26857 ft 450 kts 139°
2026-05-05 23:53 39.65604 -80.30838 26860 ft 450 kts 139°
2026-05-05 23:54 39.63413 -80.27911 26858 ft 450 kts 139°
2026-05-05 23:54 39.61290 -80.25076 26858 ft 450 kts 139°
2026-05-05 23:54 39.59103 -80.22158 26889 ft 451 kts 139°
2026-05-05 23:54 39.56952 -80.19288 26872 ft 451 kts 139°
2026-05-05 23:55 39.54794 -80.16411 26870 ft 451 kts 139°
2026-05-05 23:55 39.52601 -80.13493 26873 ft 452 kts 139°
2026-05-05 23:55 39.50405 -80.10572 26880 ft 452 kts 139°
2026-05-05 23:55 39.48211 -80.07658 26881 ft 452 kts 139°
2026-05-05 23:56 39.46013 -80.04741 26884 ft 452 kts 139°
2026-05-05 23:56 39.43817 -80.01829 26876 ft 452 kts 139°
2026-05-05 23:56 39.41624 -79.98924 26882 ft 452 kts 139°
2026-05-05 23:56 39.39424 -79.96013 26881 ft 452 kts 139°
2026-05-05 23:57 39.37228 -79.93109 26876 ft 452 kts 139°
2026-05-05 23:57 39.35025 -79.90202 26895 ft 453 kts 139°
2026-05-05 23:57 39.32805 -79.87296 26866 ft 454 kts 139°
2026-05-05 23:57 39.30669 -79.84381 26880 ft 456 kts 133°
2026-05-05 23:58 39.29155 -79.80760 26910 ft 465 kts 109°
2026-05-05 23:58 39.28682 -79.76600 26926 ft 470 kts 96°
2026-05-05 23:58 39.28396 -79.72401 26906 ft 470 kts 96°
2026-05-05 23:58 39.28083 -79.68201 26882 ft 469 kts 96°
2026-05-05 23:59 39.27786 -79.64010 26887 ft 469 kts 95°
2026-05-05 23:59 39.27499 -79.59809 26880 ft 469 kts 96°
2026-05-05 23:59 39.27221 -79.55610 26884 ft 470 kts 95°
2026-05-05 23:59 39.26901 -79.51425 26885 ft 469 kts 97°
2026-05-06 00:00 39.26545 -79.47288 26886 ft 469 kts 97°
2026-05-06 00:00 39.26192 -79.43097 26871 ft 469 kts 97°
2026-05-06 00:00 39.25844 -79.38956 26867 ft 470 kts 97°
2026-05-06 00:00 39.25494 -79.34826 26874 ft 470 kts 97°
2026-05-06 00:01 39.25252 -79.31993 26881 ft 470 kts 97°
2026-05-06 00:01 39.24912 -79.27912 26877 ft 470 kts 97°
2026-05-06 00:01 39.24555 -79.23728 26865 ft 470 kts 97°
2026-05-06 00:01 39.24204 -79.19621 26885 ft 480 kts 97°
2026-05-06 00:02 39.23835 -79.15296 26888 ft 488 kts 97°
2026-05-06 00:02 39.23462 -79.10927 26854 ft 492 kts 97°
2026-05-06 00:02 39.23083 -79.06524 26844 ft 494 kts 97°
2026-05-06 00:02 39.22709 -79.02156 26447 ft 483 kts 97°
2026-05-06 00:03 39.22341 -78.97885 25986 ft 478 kts 97°
2026-05-06 00:03 39.21965 -78.93619 25297 ft 474 kts 98°
2026-05-06 00:03 39.21577 -78.89639 24681 ft 466 kts 99°
2026-05-06 00:03 39.21179 -78.85533 24040 ft 458 kts 99°
2026-05-06 00:04 39.20787 -78.81489 23398 ft 451 kts 99°
2026-05-06 00:04 39.20400 -78.77510 22804 ft 442 kts 99°
2026-05-06 00:04 39.20021 -78.73613 22224 ft 434 kts 99°
2026-05-06 00:04 39.19654 -78.69851 21645 ft 426 kts 100°
2026-05-06 00:05 39.18926 -78.62450 20557 ft 411 kts 101°
2026-05-06 00:05 39.18596 -78.59112 20064 ft 407 kts 101°
2026-05-06 00:05 39.18256 -78.55688 19557 ft 403 kts 101°
2026-05-06 00:06 39.17910 -78.52205 19041 ft 400 kts 101°
2026-05-06 00:06 39.17556 -78.48662 18525 ft 396 kts 101°
2026-05-06 00:06 39.17206 -78.45156 17974 ft 393 kts 101°
2026-05-06 00:06 39.16864 -78.41704 17480 ft 388 kts 101°
2026-05-06 00:07 39.16541 -78.38254 17064 ft 385 kts 100°
2026-05-06 00:07 39.16001 -78.34922 16958 ft 378 kts 110°
2026-05-06 00:07 39.15203 -78.31738 16858 ft 380 kts 112°
2026-05-06 00:07 39.14400 -78.28605 16866 ft 380 kts 112°
2026-05-06 00:08 39.13592 -78.25439 16867 ft 381 kts 112°
2026-05-06 00:08 39.12788 -78.22236 16860 ft 382 kts 112°
2026-05-06 00:08 39.11984 -78.19018 16874 ft 382 kts 112°
2026-05-06 00:08 39.11179 -78.15790 16865 ft 382 kts 112°
2026-05-06 00:09 39.10373 -78.12561 16779 ft 384 kts 112°
2026-05-06 00:09 39.09562 -78.09321 16475 ft 382 kts 112°
2026-05-06 00:09 39.08783 -78.06267 16170 ft 381 kts 112°
2026-05-06 00:09 39.07987 -78.03155 15651 ft 380 kts 112°
2026-05-06 00:10 39.07193 -78.00048 15154 ft 377 kts 112°
2026-05-06 00:10 39.06384 -77.96891 14672 ft 373 kts 111°
2026-05-06 00:10 39.05584 -77.93762 14186 ft 366 kts 111°
2026-05-06 00:10 39.04817 -77.90764 13718 ft 359 kts 111°
2026-05-06 00:11 39.04042 -77.87745 13227 ft 350 kts 111°
2026-05-06 00:11 39.03286 -77.84802 12788 ft 342 kts 111°
2026-05-06 00:11 39.02547 -77.81925 12337 ft 335 kts 111°
2026-05-06 00:11 39.01820 -77.79111 11918 ft 329 kts 111°
2026-05-06 00:12 39.01104 -77.76330 11484 ft 324 kts 111°
2026-05-06 00:12 39.00397 -77.73599 11060 ft 320 kts 111°
2026-05-06 00:12 38.99735 -77.71036 10655 ft 316 kts 111°
2026-05-06 00:12 38.99092 -77.68547 10266 ft 312 kts 111°
2026-05-06 00:13 38.98440 -77.66029 9876 ft 309 kts 111°
2026-05-06 00:13 38.97736 -77.63411 9430 ft 305 kts 114°
2026-05-06 00:13 38.97000 -77.60975 9067 ft 300 kts 115°
2026-05-06 00:13 38.96280 -77.58465 8705 ft 298 kts 109°
2026-05-06 00:14 38.96030 -77.55862 8371 ft 303 kts 95°
2026-05-06 00:14 38.96021 -77.53139 7947 ft 305 kts 94°
2026-05-06 00:14 38.96023 -77.50524 7578 ft 305 kts 93°
2026-05-06 00:14 38.96061 -77.47915 7201 ft 304 kts 93°
2026-05-06 00:15 38.96109 -77.45216 6861 ft 301 kts 93°
2026-05-06 00:15 38.96153 -77.42545 6583 ft 299 kts 94°
2026-05-06 00:15 38.96192 -77.39901 6168 ft 301 kts 94°
2026-05-06 00:15 38.96234 -77.37243 5793 ft 298 kts 94°
2026-05-06 00:16 38.96275 -77.34587 5435 ft 296 kts 94°
2026-05-06 00:16 38.96312 -77.31940 5036 ft 293 kts 94°
2026-05-06 00:16 38.96352 -77.29321 4678 ft 292 kts 94°
2026-05-06 00:16 38.96388 -77.26750 4307 ft 291 kts 94°
2026-05-06 00:17 38.96425 -77.24240 3936 ft 287 kts 94°
2026-05-06 00:17 38.96461 -77.21789 3617 ft 282 kts 95°
2026-05-06 00:17 38.96497 -77.19291 3335 ft 275 kts 94°
2026-05-06 00:17 38.96566 -77.16901 3149 ft 261 kts 95°
2026-05-06 00:18 38.96280 -77.14739 2684 ft 235 kts 122°
2026-05-06 00:18 38.95368 -77.13183 2258 ft 209 kts 147°
2026-05-06 00:18 38.94249 -77.12192 2038 ft 186 kts 158°
2026-05-06 00:18 38.93146 -77.11417 1827 ft 176 kts 161°
2026-05-06 00:19 38.92089 -77.10754 1632 ft 162 kts 162°
2026-05-06 00:19 38.91200 -77.10011 1470 ft 149 kts 145°
2026-05-06 00:19 38.90607 -77.08936 1279 ft 153 kts 124°
2026-05-06 00:19 38.90240 -77.07625 1024 ft 152 kts 121°
2026-05-06 00:20 38.89667 -77.06551 786 ft 142 kts 139°
2026-05-06 00:20 38.88979 -77.05720 630 ft 131 kts 147°
2026-05-06 00:20 38.88590 -77.05288 575 ft 126 kts 146°
2026-05-06 00:20 38.88414 -77.05086 548 ft 125 kts 145°
2026-05-06 00:21 38.87785 -77.04293 351 ft 126 kts 154°
2026-05-06 00:21 38.86999 -77.03957 221 ft 117 kts 179°
2026-05-06 00:21 38.86198 -77.03879 69 ft 115 kts 179°
2026-05-06 00:21 38.85460 -77.03808 23 ft 81 kts 175°
2026-05-06 00:22 38.85188 -77.03808 21 ft 12 kts 210°
2026-05-06 00:22 38.85158 -77.03862 21 ft 3 kts 264°
2026-05-06 00:22 38.85156 -77.03899 22 ft 5 kts 266°
2026-05-06 00:22 38.85156 -77.03957 22 ft 8 kts 285°
2026-05-06 00:23 38.85196 -77.03981 22 ft 8 kts 356°
2026-05-06 00:23 38.85259 -77.03986 22 ft 11 kts 356°
2026-05-06 00:23 38.85341 -77.03994 22 ft 13 kts 355°
2026-05-06 00:23 38.85443 -77.04005 22 ft 16 kts 355°
2026-05-06 00:24 38.85559 -77.04032 22 ft 18 kts 349°